Weather in Ubatuba

Brazil     23°26′37″S   45°05′31″W
temp.,
°C
wind,
m/s
gust,
m/s
humid.,
%
clouds,
%
prec.,
mm/h
press.,
hPa
HPBL,
m
17 may, mon
mon1700:00+21nnw117949 0.0 1019267
03:00+20nw22810 0.0 1017138
06:00+19wnw22780 0.0 1017128
09:00+21sw21710 0.0 1018247
12:00+22se21710 0.0 1016254
15:00+22se32710 0.0 1014300
18:00+22nne01750 0.0 1015176
21:00+21w22800 0.0 1017207
18 may, tue
tue1800:00+20wnw22790 0.0 1017124
03:00+20w22760 0.0 1016156
06:00+20w23760 0.0 1016190
09:00+21sw22720 0.0 1018354
12:00+22sse33755 0.0 1017416
15:00+22s337319 0.1 1016694
18:00+22s337560 0.3 1017693
21:00+21s127573 0.6 1018631
19 may, wed
wed1900:00+21ssw017785 0.3 1017400
03:00+21wnw007969 0.3 1017316
06:00+20nw108051 0.1 1016284
09:00+21s00776 0.3 1018360
12:00+22se337761 0.0 1016390
15:00+22ese227518 0.0 1014491
18:00+21ene227810 0.0 1015478
21:00+21ene227756 0.0 1016565
20 may, thu
thu2000:00+21ne128017 0.0 1016442
03:00+21nnw1178100 0.0 1015257
06:00+19nw228015 0.0 1016124
09:00+21sw007391 0.0 1017176
12:00+22se237422 0.0 1016349
15:00+23e337287 0.0 1014591
18:00+22ene337942 0.0 1015552
21:00+21ene238116 0.0 1016423
21 may, fri
fri2100:00+21ne228123 0.0 1015252
03:00+20nnw118136 0.0 1014105
06:00+20nnw227716 0.0 1014121
09:00+21ese117210 0.0 1015211
12:00+22ese337632 0.0 1013365
15:00+23e55774 0.0 1011381
18:00+22se238058 0.0 1013604
21:00+22e3483100 0.4 1015564